Precipitable_Water
1.03 1.11 1.05 1.04 1.04 1.00 0.99 0.91 0.85 0.81 0.78 0.71 0.65 0.60 0.60 0.56 0.56 0.53 0.58 0.50 0.47 0.44 0.42 0.37 0.34 0.35 0.34 0.34 0.32 0.29 0.25 0.23 0.18 0.18 0.19 0.18 0.18 0.17 0.15 0.15 0.17 0.18 0.19
1.02 1.02 1.03 1.04 1.03 0.99 0.94 0.90 0.84 0.80 0.71 0.65 0.63 0.59 0.57 0.56 0.57 0.61 0.49 0.48 0.46 0.41 0.39 0.37 0.35 0.35 0.33 0.32 0.30 0.27 0.24 0.23 0.20 0.16 0.16 0.16 0.17 0.16 0.14 0.15 0.17 0.18 0.19
1.01 0.99 0.98 0.98 0.97 0.95 0.90 0.87 0.80 0.72 0.66 0.63 0.61 0.58 0.60 0.60 0.63 0.53 0.52 0.49 0.44 0.41 0.40 0.38 0.35 0.33 0.30 0.30 0.29 0.26 0.23 0.23 0.22 0.17 0.15 0.17 0.16 0.14 0.14 0.16 0.16 0.16 0.18
0.88 0.86 0.86 0.89 0.89 0.87 0.86 0.81 0.71 0.66 0.64 0.63 0.63 0.62 0.62 0.66 0.62 0.55 0.51 0.46 0.42 0.41 0.40 0.37 0.34 0.32 0.30 0.29 0.26 0.24 0.23 0.22 0.20 0.17 0.16 0.15 0.14 0.14 0.15 0.14 0.13 0.16 0.16
0.80 0.81 0.81 0.85 0.86 0.84 0.78 0.71 0.68 0.66 0.63 0.65 0.62 0.61 0.69 0.71 0.61 0.55 0.49 0.44 0.40 0.38 0.38 0.34 0.34 0.33 0.32 0.30 0.26 0.25 0.23 0.20 0.18 0.16 0.15 0.14 0.12 0.12 0.13 0.14 0.14 0.15 0.17
0.66 0.70 0.77 0.80 0.77 0.75 0.73 0.69 0.67 0.65 0.63 0.63 0.63 0.71 0.68 0.66 0.59 0.53 0.46 0.42 0.40 0.35 0.31 0.32 0.32 0.31 0.33 0.30 0.28 0.26 0.23 0.19 0.16 0.16 0.14 0.13 0.11 0.13 0.15 0.14 0.14 0.14 0.14
0.58 0.64 0.70 0.72 0.73 0.74 0.71 0.69 0.66 0.64 0.66 0.68 0.68 0.70 0.65 0.60 0.53 0.46 0.40 0.38 0.34 0.29 0.29 0.30 0.30 0.32 0.31 0.27 0.27 0.25 0.22 0.20 0.19 0.18 0.15 0.13 0.13 0.15 0.16 0.14 0.14 0.15 0.16
0.61 0.64 0.66 0.67 0.69 0.70 0.69 0.67 0.67 0.68 0.71 0.69 0.65 0.65 0.60 0.56 0.49 0.41 0.38 0.33 0.28 0.28 0.28 0.30 0.30 0.31 0.31 0.26 0.24 0.21 0.20 0.19 0.19 0.19 0.17 0.14 0.16 0.17 0.18 0.17 0.16 0.15 0.18
0.59 0.61 0.65 0.68 0.70 0.69 0.70 0.70 0.70 0.67 0.70 0.66 0.62 0.58 0.56 0.50 0.42 0.35 0.30 0.27 0.24 0.24 0.28 0.30 0.31 0.31 0.30 0.27 0.22 0.19 0.18 0.18 0.20 0.20 0.18 0.18 0.19 0.20 0.19 0.18 0.14 0.13 0.13
0.58 0.63 0.68 0.71 0.71 0.69 0.69 0.70 0.68 0.65 0.62 0.60 0.59 0.56 0.48 0.36 0.32 0.30 0.27 0.25 0.22 0.24 0.27 0.30 0.31 0.31 0.29 0.26 0.23 0.21 0.18 0.17 0.18 0.17 0.16 0.18 0.19 0.20 0.19 0.18 0.15 0.13 0.14
0.63 0.66 0.66 0.67 0.65 0.65 0.64 0.64 0.62 0.60 0.58 0.52 0.44 0.39 0.35 0.31 0.28 0.25 0.26 0.26 0.25 0.25 0.27 0.28 0.30 0.31 0.29 0.27 0.26 0.25 0.20 0.20 0.19 0.17 0.17 0.18 0.19 0.19 0.19 0.18 0.17 0.16 0.15
0.60 0.58 0.59 0.61 0.62 0.61 0.58 0.56 0.51 0.43 0.38 0.34 0.30 0.26 0.26 0.26 0.27 0.26 0.26 0.28 0.29 0.28 0.28 0.31 0.32 0.32 0.31 0.30 0.29 0.29 0.26 0.23 0.21 0.19 0.17 0.16 0.16 0.17 0.18 0.17 0.17 0.17 0.18
0.56 0.54 0.51 0.49 0.46 0.43 0.39 0.35 0.31 0.29 0.26 0.24 0.23 0.22 0.21 0.24 0.26 0.28 0.29 0.29 0.31 0.31 0.31 0.31 0.32 0.33 0.33 0.31 0.31 0.30 0.30 0.28 0.22 0.19 0.17 0.16 0.17 0.18 0.19 0.18 0.16 0.17 0.18
0.45 0.42 0.41 0.39 0.36 0.33 0.31 0.28 0.26 0.24 0.24 0.23 0.23 0.23 0.24 0.25 0.26 0.29 0.31 0.32 0.33 0.32 0.33 0.32 0.32 0.33 0.33 0.33 0.32 0.32 0.31 0.31 0.27 0.21 0.18 0.18 0.19 0.18 0.17 0.18 0.14 0.15 0.15
0.39 0.36 0.33 0.30 0.28 0.27 0.27 0.27 0.27 0.28 0.29 0.28 0.28 0.29 0.28 0.26 0.28 0.32 0.33 0.33 0.33 0.34 0.35 0.33 0.31 0.30 0.30 0.31 0.32 0.32 0.31 0.31 0.28 0.25 0.20 0.18 0.18 0.17 0.17 0.18 0.15 0.14 0.13
0.31 0.29 0.27 0.25 0.25 0.24 0.22 0.20 0.22 0.21 0.22 0.23 0.25 0.26 0.26 0.29 0.29 0.30 0.33 0.34 0.35 0.36 0.34 0.30 0.29 0.29 0.28 0.29 0.30 0.30 0.31 0.31 0.30 0.28 0.22 0.19 0.18 0.17 0.17 0.18 0.17 0.14 0.13
0.27 0.25 0.22 0.20 0.19 0.18 0.17 0.16 0.14 0.15 0.17 0.16 0.16 0.16 0.16 0.15 0.14 0.16 0.20 0.24 0.29 0.32 0.31 0.33 0.32 0.31 0.30 0.30 0.30 0.29 0.29 0.32 0.33 0.30 0.23 0.19 0.19 0.19 0.18 0.18 0.17 0.15 0.13
0.22 0.20 0.19 0.18 0.17 0.17 0.15 0.14 0.14 0.12 0.11 0.11 0.14 0.14 0.15 0.16 0.16 0.17 0.17 0.17 0.19 0.28 0.28 0.28 0.28 0.28 0.32 0.31 0.30 0.29 0.30 0.31 0.31 0.29 0.24 0.20 0.20 0.20 0.19 0.18 0.18 0.16 0.13
0.19 0.18 0.18 0.18 0.16 0.14 0.14 0.13 0.13 0.12 0.12 0.12 0.12 0.12 0.13 0.14 0.15 0.16 0.19 0.19 0.17 0.18 0.23 0.25 0.28 0.31 0.32 0.32 0.31 0.29 0.31 0.30 0.31 0.29 0.25 0.21 0.20 0.21 0.20 0.20 0.20 0.18 0.15
0.18 0.17 0.15 0.14 0.13 0.13 0.12 0.11 0.11 0.11 0.11 0.11 0.11 0.11 0.13 0.13 0.12 0.13 0.15 0.17 0.18 0.19 0.22 0.22 0.29 0.29 0.30 0.32 0.30 0.29 0.29 0.30 0.30 0.29 0.28 0.24 0.21 0.22 0.21 0.22 0.21 0.19 0.17
0.16 0.13 0.13 0.12 0.12 0.11 0.11 0.10 0.10 0.10 0.10 0.10 0.10 0.11 0.12 0.12 0.13 0.14 0.15 0.16 0.17 0.18 0.21 0.27 0.26 0.29 0.32 0.33 0.31 0.30 0.28 0.29 0.30 0.30 0.30 0.27 0.23 0.22 0.23 0.24 0.24 0.22 0.19
0.13 0.12 0.11 0.11 0.11 0.10 0.10 0.10 0.10 0.09 0.09 0.09 0.09 0.10 0.11 0.12 0.12 0.13 0.15 0.16 0.17 0.19 0.22 0.25 0.30 0.31 0.34 0.32 0.32 0.30 0.29 0.28 0.29 0.30 0.30 0.28 0.25 0.24 0.25 0.25 0.24 0.24 0.21
0.12 0.11 0.11 0.10 0.10 0.09 0.09 0.09 0.09 0.08 0.08 0.09 0.09 0.09 0.10 0.11 0.12 0.12 0.13 0.15 0.17 0.18 0.20 0.23 0.25 0.28 0.32 0.34 0.34 0.32 0.30 0.30 0.31 0.32 0.31 0.29 0.27 0.26 0.26 0.25 0.24 0.23 0.22
0.12 0.11 0.10 0.09 0.09 0.08 0.08 0.08 0.08 0.08 0.08 0.09 0.09 0.09 0.10 0.10 0.11 0.11 0.12 0.14 0.16 0.18 0.19 0.21 0.23 0.25 0.27 0.29 0.31 0.33 0.33 0.34 0.33 0.33 0.33 0.31 0.29 0.28 0.27 0.26 0.25 0.24 0.23
0.11 0.10 0.09 0.09 0.08 0.08 0.08 0.08 0.08 0.08 0.08 0.09 0.09 0.10 0.10 0.10 0.11 0.11 0.11 0.13 0.15 0.16 0.18 0.20 0.21 0.23 0.24 0.26 0.28 0.30 0.31 0.33 0.33 0.33 0.33 0.32 0.30 0.29 0.28 0.27 0.26 0.24 0.23
0.10 0.09 0.09 0.09 0.08 0.08 0.07 0.07 0.07 0.08 0.08 0.08 0.09 0.09 0.10 0.10 0.11 0.11 0.11 0.12 0.13 0.15 0.17 0.18 0.20 0.21 0.23 0.24 0.26 0.28 0.29 0.31 0.31 0.33 0.32 0.31 0.29 0.28 0.28 0.27 0.26 0.25 0.24
Wind_Speed
23 24 24 25 26 26 27 28 29 30 31 33 34 35 35 35 36 36 38 37 38 39 40 40 41 41 41 42 42 43 43 43 44 43 41 41 40 39 39 38 38 36 35
23 24 25 26 26 26 27 29 30 31 33 34 34 34 34 35 35 39 37 38 39 40 41 41 41 40 41 41 42 43 42 42 40 40 39 38 37 37 37 36 35 35 34
25 26 27 27 28 29 30 31 31 32 33 33 34 34 34 36 39 38 38 39 40 41 42 41 42 41 41 42 41 41 41 40 39 38 37 36 36 35 35 34 34 33 32
26 28 29 29 30 30 31 31 32 33 33 34 34 34 35 38 38 39 41 41 42 42 41 41 41 40 40 41 40 40 39 38 37 36 35 35 34 34 33 33 32 31 30
28 29 30 30 30 31 31 32 33 33 34 33 33 35 37 38 40 42 42 43 42 43 42 41 40 40 40 40 39 38 36 36 35 33 33 33 32 32 31 31 32 30 28
28 29 29 29 31 31 32 32 33 33 33 33 35 36 38 41 43 44 44 43 43 44 42 40 39 39 39 38 37 36 35 35 33 31 31 31 31 30 30 30 30 28 26
27 27 27 28 29 31 31 32 32 32 33 35 38 38 43 44 45 44 44 44 44 43 41 39 39 38 38 36 34 33 34 33 32 30 30 29 28 28 29 29 28 28 27
25 26 27 27 28 29 29 30 30 33 34 36 40 41 44 45 44 44 45 45 45 43 40 39 38 37 36 34 33 33 33 32 31 30 29 27 27 27 28 28 28 27 26
26 26 26 27 26 27 27 29 32 34 34 41 42 43 45 44 44 46 46 45 44 41 39 37 36 36 35 33 32 33 32 31 30 29 27 26 25 26 27 27 27 25 24
24 25 24 24 25 26 29 32 35 37 39 41 43 43 43 45 45 46 45 44 42 40 39 37 36 35 33 32 32 32 31 30 29 27 25 24 24 25 27 26 26 24 23
23 23 24 25 28 31 33 35 37 38 40 40 41 43 45 45 46 46 46 44 42 41 38 36 35 35 34 33 32 32 31 30 28 26 24 24 24 25 25 25 24 24 23
24 25 27 29 31 32 33 34 35 37 39 42 44 46 46 47 47 47 46 44 42 40 38 37 36 36 35 34 34 33 31 30 28 26 25 24 24 24 24 24 24 23 23
26 27 29 30 31 32 34 36 38 40 42 44 46 47 48 48 48 47 46 44 42 41 39 38 37 37 37 36 35 34 32 30 28 26 24 24 23 23 23 23 23 23 22
28 29 30 31 33 35 36 38 40 42 44 46 48 49 50 51 49 47 46 44 42 41 40 40 39 39 38 38 36 35 33 30 28 26 25 24 23 22 22 22 21 21 21
29 31 32 34 35 37 39 41 43 44 46 49 50 51 52 53 51 50 47 46 44 43 42 41 40 39 39 38 37 36 33 30 28 27 25 23 22 21 21 21 20 19 19
31 32 34 36 38 40 42 44 45 48 49 50 52 53 54 54 55 53 51 49 48 46 44 43 42 39 38 36 34 34 33 31 29 27 25 23 22 21 20 19 19 18 18
33 35 37 38 40 42 44 47 50 50 51 51 52 54 54 56 55 53 51 50 49 47 45 43 40 38 36 34 32 32 31 30 29 27 25 23 21 20 19 18 18 17 17
35 37 38 40 43 45 47 49 51 53 55 55 54 54 54 54 53 51 49 47 44 41 40 41 40 38 35 33 32 30 28 28 27 26 24 23 21 19 18 17 16 16 15
37 39 41 43 45 47 49 50 52 53 54 55 56 54 52 51 48 44 42 40 39 38 38 36 34 33 33 32 30 29 28 26 26 25 24 23 21 19 18 17 16 15 14
39 40 42 44 46 48 50 51 53 54 54 55 54 52 50 47 43 40 38 37 35 35 34 33 31 30 30 28 26 26 26 25 25 24 23 22 21 19 17 16 15 14 13
40 42 44 45 48 49 51 52 54 54 54 52 49 47 45 42 40 37 36 34 32 31 30 29 28 27 25 25 25 24 24 25 25 24 22 22 21 19 17 16 14 13 12
41 43 45 47 49 50 51 53 53 52 50 48 45 43 41 38 37 35 34 32 30 28 26 24 24 25 24 24 23 23 23 24 24 25 23 21 21 19 17 16 14 13 12
43 44 46 47 49 51 52 52 51 49 46 44 42 40 38 37 35 35 33 32 29 27 25 22 20 19 20 21 22 22 22 22 24 24 24 22 20 19 18 16 15 13 12
44 45 47 48 49 51 51 50 47 45 43 41 40 38 37 36 36 34 32 30 27 25 23 21 19 18 18 18 19 21 20 20 21 22 23 22 21 20 19 17 16 14 13
44 46 47 48 49 49 48 46 44 42 40 39 38 37 36 35 34 33 32 30 28 25 22 19 17 17 17 16 14 13 14 16 18 19 21 21 20 19 19 19 19 17 14
45 46 47 48 48 47 45 43 41 40 38 38 37 37 35 34 33 32 32 30 27 24 22 21 19 18 17 16 14 13 12 11 12 17 18 19 19 19 19 19 20 20 17
Wind_Direction
268 272 274 276 277 275 274 275 279 283 288 291 295 297 300 301 303 305 306 305 306 307 309 310 310 309 309 309 310 310 309 308 308 308 307 307 307 307 307 306 305 303 301
272 276 276 280 278 276 275 277 280 284 289 292 294 297 298 300 302 306 304 304 305 306 308 309 309 310 309 309 310 310 310 310 309 309 309 309 309 309 309 308 308 306 303
277 278 280 278 278 276 277 279 282 285 289 290 293 295 297 299 301 302 304 305 305 305 306 307 309 308 309 309 309 310 311 310 310 310 310 310 311 311 311 310 309 308 306
281 281 280 278 278 277 277 280 283 285 288 289 292 294 296 300 302 302 302 303 304 305 305 305 306 307 308 309 309 310 310 310 311 310 310 311 312 313 312 311 312 311 308
284 282 282 280 279 280 280 281 283 285 287 289 292 293 297 301 302 302 302 302 302 303 303 304 305 306 307 309 309 309 310 311 311 310 310 312 313 314 314 314 313 313 311
288 286 283 281 281 282 281 282 285 286 288 289 294 295 299 301 302 302 302 302 302 302 300 301 303 304 307 308 307 308 309 311 310 310 311 312 313 314 316 316 314 315 312
292 289 286 285 284 284 283 284 285 285 287 290 295 294 299 302 303 302 303 302 302 301 298 298 300 303 306 307 307 307 309 309 309 309 310 312 314 316 318 318 316 314 311
296 294 292 290 289 287 286 287 288 288 288 294 296 297 299 302 302 302 303 303 302 299 297 296 297 301 304 304 305 307 309 309 308 308 309 311 313 318 320 320 318 314 312
298 297 295 293 292 291 290 290 290 292 288 295 297 299 301 301 302 302 303 302 300 298 295 295 295 298 301 300 303 306 308 307 307 307 306 308 311 316 320 323 323 318 315
302 300 299 298 297 296 294 294 294 294 294 296 298 300 301 302 303 303 303 301 299 297 295 293 293 296 297 297 300 304 306 305 306 305 305 306 310 315 320 321 324 322 317
305 303 302 301 300 299 298 297 297 297 298 299 300 301 302 303 303 303 301 299 297 295 293 291 292 293 293 294 297 301 302 303 302 301 301 303 307 313 318 320 322 322 319
307 305 304 304 302 302 301 301 301 301 301 302 302 303 303 303 303 303 302 298 297 294 291 290 290 290 290 291 293 296 298 299 298 296 297 299 303 309 315 318 320 321 320
307 307 307 306 305 305 304 304 304 304 304 304 304 304 304 303 303 302 300 299 296 292 290 289 288 288 288 288 289 290 293 293 292 291 291 295 300 305 311 316 318 320 322
310 310 309 308 308 307 307 307 307 307 306 306 306 305 305 304 303 302 300 297 295 292 289 288 287 287 286 286 286 286 287 286 285 286 287 291 296 301 307 313 316 319 324
311 311 310 310 309 309 309 309 309 309 308 308 307 306 305 304 303 301 298 296 293 290 289 287 286 285 285 284 282 280 280 280 279 281 281 285 289 295 302 310 313 316 321
311 311 311 310 310 310 310 310 310 310 310 309 308 306 305 304 303 300 297 293 289 287 285 285 284 283 283 282 280 279 273 272 273 275 275 279 283 288 295 305 310 312 318
311 311 311 311 312 312 312 312 311 312 311 310 309 309 307 305 304 300 297 294 290 284 282 281 281 279 279 277 280 278 271 268 268 268 269 272 276 282 288 296 303 309 314
311 312 312 312 312 313 313 313 313 313 312 312 312 311 310 309 307 303 299 296 291 286 282 279 277 277 271 274 278 275 270 266 263 263 262 265 268 275 282 289 295 305 310
312 312 313 313 314 314 315 315 315 314 314 313 313 312 312 312 310 308 305 299 294 289 284 282 277 271 269 272 273 273 265 263 260 258 258 259 261 267 275 281 288 294 305
312 313 314 315 315 316 316 316 316 316 315 315 315 314 313 313 312 311 309 305 300 295 287 280 274 272 270 264 271 271 262 260 255 254 254 254 254 260 267 274 281 286 295
312 314 315 316 317 317 317 317 317 317 317 317 316 316 316 314 313 312 311 309 306 300 296 283 271 267 265 265 268 266 263 256 253 249 250 250 249 252 260 267 273 280 286
313 314 315 317 317 318 318 318 318 319 319 318 318 318 318 316 315 313 311 310 308 303 298 293 276 264 262 264 264 264 265 258 248 244 245 246 244 247 254 260 265 271 276
314 315 316 317 318 319 319 320 320 320 320 320 320 319 319 318 316 315 312 308 306 303 297 291 282 271 265 261 266 265 265 254 246 244 239 240 240 243 248 253 257 262 267
313 315 316 317 319 320 320 321 321 321 321 321 321 320 320 319 317 316 314 310 306 303 297 290 277 270 266 270 269 263 262 254 243 240 233 235 238 242 245 249 251 254 258
314 315 317 318 319 320 321 321 321 322 322 322 322 322 321 320 319 318 315 310 302 298 293 289 278 268 266 267 267 269 262 249 240 231 230 233 237 242 244 248 247 246 252
314 315 317 318 319 321 321 321 321 322 322 322 323 322 321 321 321 321 319 315 305 293 284 278 273 268 264 260 259 259 257 248 236 232 231 234 238 244 248 249 246 241 243